Palestine, TX

11:36 PM CST on February 09, 2016 (GMT -0600)
Palestine Municipal

Weather History for KPSN - February, 2013

Change the Weather History Date:

Saturday, February 9, 2013

  Actual Average (KTYR) Record (KTYR)
Temperature  
Mean Temperature 51 °F 49 °F  
Max Temperature 59 °F 59 °F 84 °F (1954)
Min Temperature 43 °F 39 °F 12 °F (1933)
Degree Days  
Heating Degree Days 14 16  
Month to date heating degree days 150  
Since 1 July heating degree days 1628  
Cooling Degree Days 0 0  
Month to date cooling degree days 0  
Year to date cooling degree days 4  
Growing Degree Days 1 (Base 50)    
Moisture  
Dew Point 48 °F    
Average Humidity 91    
Maximum Humidity 95    
Minimum Humidity 84    
Precipitation  
Precipitation 0.01 in 0.13 in 1.45 in (1950)
Month to date precipitation 1.13  
Year to date precipitation 4.19  
Snow  
Snow 0.00 in - - ()
Month to date snowfall  
Since 1 July snowfall  
Snow Depth -    
Sea Level Pressure  
Sea Level Pressure 30.04 in    
Wind  
Wind Speed 6 mph (ESE)    
Max Wind Speed 13 mph    
Max Gust Speed 20 mph    
Visibility 7 miles    
Events Rain    
T = Trace of Precipitation, MM = Missing Value Source: NWS Daily Summary

Daily Weather History Graph

Daily Weather History Graph

Search for Another Location

Airport or City:

Trip Planner

Search our weather history database for the weather conditions in past years. The results will help you decide how hot, cold, wet, or windy it might be!

Date:

Astronomy

Feb. 09, 2013 Rise Set
Actual Time 7:09 AM CST 6:04 PM CST
Civil Twilight 6:44 AM CST 6:29 PM CST
Nautical Twilight 6:15 AM CST 6:58 PM CST
Astronomical Twilight 5:47 AM CST 7:27 PM CST
Moon 6:22 AM CST (2/9) 5:46 PM CST (2/9)
Length of Visible Light 11h 45m
Length of Day
10h 54m
Waning Crescent, 0% of the Moon is Illuminated
Feb 9
Waning Crescent
Feb 10
New
Feb 17
First Quarter
Feb 25
Full
Mar 4
Last Quarter

Hourly Weather History & Observations

Time (CST) Temp. Windchill Dew Point Humidity Pressure Visibility Wind Dir Wind Speed Gust Speed Precip Events Conditions
12:15 AM 49.8 °F - 45.1 °F 84% 30.17 in 10.0 mi Calm Calm - N/A   Clear
12:35 AM 46.6 °F - 43.9 °F 90% 30.17 in 10.0 mi Calm Calm - N/A   Clear
12:55 AM 46.6 °F - 44.4 °F 92% 30.17 in 10.0 mi Calm Calm - N/A   Clear
1:15 AM 44.8 °F - 43.2 °F 94% 30.18 in 10.0 mi Calm Calm - N/A   Clear
1:35 AM 44.6 °F - 42.8 °F 93% 30.18 in 10.0 mi Calm Calm - N/A   Clear
1:55 AM 44.8 °F 42.4 °F 43.3 °F 95% 30.17 in 10.0 mi East 4.6 mph - N/A   Clear
2:15 AM 45.9 °F 42.9 °F 44.4 °F 95% 30.16 in 10.0 mi ESE 5.8 mph - N/A   Clear
2:35 AM 47.5 °F - 45.5 °F 93% 30.14 in 10.0 mi East 9.2 mph - N/A   Clear
2:55 AM 47.5 °F - 45.0 °F 91% 30.14 in 10.0 mi ESE 9.2 mph - N/A   Clear
3:15 AM 46.9 °F - 44.6 °F 92% 30.14 in 10.0 mi ESE 8.1 mph - N/A   Clear
3:35 AM 46.4 °F 43.5 °F 44.1 °F 92% 30.16 in 10.0 mi SE 5.8 mph - N/A   Scattered Clouds
3:55 AM 46.4 °F 41.1 °F 44.2 °F 92% 30.14 in 10.0 mi East 11.5 mph - N/A   Mostly Cloudy
4:15 AM 45.5 °F 42.5 °F 43.2 °F 92% 30.15 in 10.0 mi East 5.8 mph - N/A   Scattered Clouds
4:35 AM 44.8 °F 41.6 °F 42.1 °F 90% 30.15 in 10.0 mi East 5.8 mph - N/A   Scattered Clouds
4:55 AM 44.8 °F 41.0 °F 41.9 °F 90% 30.16 in 10.0 mi East 6.9 mph - N/A   Mostly Cloudy
5:15 AM 44.6 °F 40.2 °F 41.0 °F 87% 30.16 in 10.0 mi East 8.1 mph - N/A   Mostly Cloudy
5:35 AM 44.2 °F 40.3 °F 41.0 °F 88% 30.16 in 10.0 mi East 6.9 mph - N/A   Mostly Cloudy
5:55 AM 43.9 °F 40.5 °F 40.5 °F 88% 30.18 in 10.0 mi East 5.8 mph - N/A   Mostly Cloudy
6:15 AM 43.7 °F 40.3 °F 40.5 °F 88% 30.17 in 10.0 mi East 5.8 mph - N/A   Scattered Clouds
6:35 AM 43.3 °F 38.1 °F 40.5 °F 90% 30.16 in 10.0 mi East 9.2 mph - N/A   Mostly Cloudy
6:55 AM 43.3 °F 37.7 °F 40.5 °F 90% 30.16 in 10.0 mi East 10.4 mph - N/A   Mostly Cloudy
7:15 AM 43.7 °F 38.6 °F 40.8 °F 90% 30.16 in 10.0 mi East 9.2 mph - N/A   Overcast
7:35 AM 43.9 °F 37.9 °F 41.2 °F 90% 30.15 in 10.0 mi East 11.5 mph - N/A   Overcast
7:55 AM 44.1 °F 38.1 °F 41.5 °F 91% 30.15 in 7.0 mi East 11.5 mph 19.6 mph N/A   Overcast
8:15 AM 44.6 °F 39.2 °F 42.1 °F 91% 30.13 in 7.0 mi East 10.4 mph - N/A   Overcast
8:35 AM 45.1 °F 39.9 °F 42.8 °F 91% 30.13 in 7.0 mi ESE 10.4 mph 17.3 mph N/A   Overcast
8:55 AM 45.9 °F 41.7 °F 43.3 °F 91% 30.14 in 7.0 mi ESE 8.1 mph - N/A   Overcast
9:15 AM 46.4 °F 41.9 °F 43.9 °F 91% 30.13 in 7.0 mi East 9.2 mph 16.1 mph N/A   Overcast
9:35 AM 46.9 °F - 44.4 °F 91% 30.14 in 7.0 mi East 8.1 mph - N/A   Overcast
9:55 AM 47.3 °F - 44.8 °F 91% 30.14 in 7.0 mi ESE 6.9 mph - N/A   Overcast
10:15 AM 48.0 °F - 45.3 °F 90% 30.14 in 5.0 mi East 8.1 mph - N/A   Overcast
10:35 AM 48.0 °F - 45.3 °F 90% 30.15 in 5.0 mi ESE 6.9 mph - N/A   Overcast
10:55 AM 48.2 °F - 45.5 °F 90% 30.15 in 5.0 mi East 5.8 mph - N/A   Overcast
11:15 AM 48.4 °F - 45.5 °F 90% 30.14 in 5.0 mi ESE 6.9 mph - N/A   Overcast
11:35 AM 48.6 °F - 45.9 °F 90% 30.12 in 5.0 mi East 10.4 mph - N/A   Overcast
11:55 AM 49.3 °F - 46.2 °F 89% 30.10 in 5.0 mi East 10.4 mph - N/A   Overcast
12:15 PM 49.5 °F - 46.4 °F 89% 30.09 in 7.0 mi East 8.1 mph - N/A   Overcast
12:35 PM 50.0 °F - 46.4 °F 87% 30.07 in 7.0 mi East 9.2 mph - N/A   Overcast
12:55 PM 50.2 °F - 46.6 °F 87% 30.05 in 7.0 mi East 9.2 mph - N/A   Overcast
1:15 PM 50.5 °F - 46.6 °F 86% 30.04 in 7.0 mi East 11.5 mph - N/A   Overcast
1:35 PM 50.5 °F - 46.6 °F 86% 30.03 in 7.0 mi East 6.9 mph - N/A   Overcast
1:55 PM 50.5 °F - 47.3 °F 89% 30.01 in 7.0 mi East 8.1 mph - N/A   Overcast
2:15 PM 51.8 °F - 47.3 °F 85% 30.00 in 7.0 mi East 8.1 mph - N/A   Overcast
2:35 PM 52.0 °F - 47.7 °F 85% 29.99 in 7.0 mi East 11.5 mph - N/A   Overcast
2:55 PM 52.7 °F - 47.8 °F 84% 29.98 in 5.0 mi East 8.1 mph - N/A   Haze
3:15 PM 52.0 °F - 48.6 °F 88% 29.97 in 2.5 mi East 10.4 mph - N/A Rain Light Rain
3:35 PM 51.8 °F - 49.1 °F 90% 29.97 in 2.5 mi East 9.2 mph - N/A   Drizzle
3:55 PM 51.8 °F - 49.5 °F 92% 29.96 in 3.0 mi ESE 8.1 mph - 0.01 in   Light Drizzle
4:15 PM 51.8 °F - 50.0 °F 94% 29.94 in 3.0 mi ESE 9.2 mph - N/A   Light Drizzle
4:35 PM 52.2 °F - 50.5 °F 94% 29.93 in 4.0 mi East 9.2 mph - N/A   Overcast
4:55 PM 52.3 °F - 50.9 °F 95% 29.92 in 4.0 mi East 10.4 mph - N/A   Overcast
5:15 PM 53.2 °F - 51.8 °F 95% 29.92 in 5.0 mi East 9.2 mph - N/A   Overcast
5:35 PM 54.0 °F - 52.2 °F 94% 29.91 in 5.0 mi East 8.1 mph - N/A   Overcast
5:55 PM 54.7 °F - 52.7 °F 93% 29.91 in 5.0 mi East 9.2 mph - N/A   Overcast
6:15 PM 55.6 °F - 53.2 °F 92% 29.90 in 7.0 mi ESE 10.4 mph 16.1 mph N/A   Overcast
6:35 PM 56.3 °F - 53.6 °F 91% 29.90 in 7.0 mi ESE 12.7 mph 16.1 mph N/A   Overcast
6:55 PM 57.2 °F - 54.0 °F 89% 29.90 in 7.0 mi SE 11.5 mph 18.4 mph N/A   Overcast
7:15 PM 57.4 °F - 54.1 °F 89% 29.90 in 7.0 mi ESE 11.5 mph - N/A   Overcast
7:35 PM 57.6 °F - 54.5 °F 90% 29.90 in 7.0 mi ESE 11.5 mph - N/A   Overcast
7:55 PM 57.6 °F - 54.5 °F 90% 29.90 in 7.0 mi ESE 9.2 mph - N/A   Overcast
8:15 PM 57.7 °F - 54.7 °F 90% 29.90 in 7.0 mi ESE 9.2 mph - N/A   Overcast
8:35 PM 57.7 °F - 54.9 °F 90% 29.91 in 7.0 mi ESE 9.2 mph - N/A   Overcast
8:55 PM 58.1 °F - 55.0 °F 90% 29.91 in 7.0 mi ESE 8.1 mph - N/A   Overcast
9:15 PM 58.1 °F - 55.4 °F 91% 29.91 in 7.0 mi ESE 5.8 mph - N/A   Overcast
9:35 PM 58.3 °F - 55.6 °F 91% 29.91 in 5.0 mi ESE 8.1 mph - N/A   Overcast
9:55 PM 58.3 °F - 55.8 °F 91% 29.90 in 4.0 mi ESE 8.1 mph - N/A   Overcast
10:15 PM 58.1 °F - 55.9 °F 93% 29.89 in 3.0 mi ESE 9.2 mph - N/A   Overcast
10:35 PM 58.1 °F - 56.3 °F 94% 29.87 in 3.0 mi ESE 10.4 mph - N/A   Overcast
10:55 PM 58.3 °F - 56.7 °F 94% 29.87 in 4.0 mi ESE 9.2 mph - N/A   Overcast
11:15 PM 59.0 °F - 57.2 °F 94% 29.85 in 4.0 mi SE 9.2 mph 16.1 mph N/A   Overcast
11:35 PM 59.4 °F - 57.7 °F 94% 29.84 in 5.0 mi ESE 10.4 mph - N/A   Overcast
11:55 PM 59.9 °F - 58.3 °F 94% 29.85 in 7.0 mi SE 8.1 mph 17.3 mph N/A   Overcast